This demonstration page uses our WeatherBlox Daily Observations layout. Learn more.

Left ArrowRight Arrow

39.92423, -83.80882

Hourly Observations for October 12, 2020

Temp ( °F °C ) Dew Point ( °F °C ) Humidity (%) Winds ( mph kmh ) Pressure ( in mb ) Visibility ( mi km ) Precip ( " mm )
12:56 am 00:56 Cloudy 64 17.8 64 17.8 100 100 ENE 7 11 29.9 1013 9 14.48406 0 0
1:24 am 01:24 Cloudy 64 18 64 18 100 100 ENE 6 9 29.89 1012 8 12.87472 0 0
1:56 am 01:56 Cloudy 64 18 N/A N/A E 8 13 29.89 1012 9 14.48406 0 0
2:10 am 02:10 Cloudy 64 18 N/A N/A E 7 11 29.88 1012 7 11.26538 0 0
2:24 am 02:24 Cloudy 63 17 N/A N/A E 6 9 29.88 1012 7 11.26538 0 0
2:34 am 02:34 Cloudy 63 17 N/A N/A E 7 11 29.87 1012 7 11.26538 0 0
2:56 am 02:56 Cloudy with Mist and Fog 62 16.7 62 16.7 100 100 E 7 11 29.88 1012 6 9.65604 0 0
3:19 am 03:19 Cloudy with Mist and Fog 63 17 63 17 100 100 E 6 9 29.86 1011 6 9.65604 0 0
3:56 am 03:56 Cloudy 63 17.2 63 17.2 100 100 E 5 7 29.87 1012 7 11.26538 0 0
4:11 am 04:11 Cloudy 63 17 63 17 100 100 E 3 6 29.86 1011 7 11.26538 0 0
4:56 am 04:56 Cloudy with Mist and Fog 62 16.7 62 16.7 100 100 ENE 5 7 29.86 1011 6 9.65604 0 0
5:08 am 05:08 Cloudy with Mist and Fog 63 17 63 17 100 100 E 5 7 29.86 1011 6 9.65604 0 0
5:56 am 05:56 Cloudy 63 17.2 63 17.2 100 100 E 5 7 29.87 1012 7 11.26538 0 0
6:56 am 06:56 Cloudy 63 17.2 63 17.2 100 100 E 6 9 29.87 1012 8 12.87472 0 0
7:18 am 07:18 Cloudy 63 17 63 17 100 100 ESE 7 11 29.85 1011 9 14.48406 0 0
7:56 am 07:56 Cloudy 63 17.2 63 17.2 100 100 ESE 6 9 29.87 1012 8 12.87472 0 0
8:56 am 08:56 Cloudy 64 17.8 64 17.8 100 100 SE 7 11 29.87 1012 8 12.87472 0 0
9:56 am 09:56 Cloudy 65 18.3 65 18.3 100 100 SSE 9 15 29.87 1012 10 16.0934 0 0
10:03 am 10:03 Cloudy 64 18 64 18 100 100 SSE 6 9 29.86 1011 10 16.0934 0 0
10:56 am 10:56 Cloudy 65 18.3 64 17.8 97 97 SSE 7 11 29.87 1012 10 16.0934 0 0
11:56 am 11:56 Cloudy 65 18.3 65 18.3 100 100 S 5 7 29.87 1012 10 16.0934 0 0
12:56 pm 12:56 Cloudy 66 18.9 64 17.8 93 93 S 5 7 29.85 1011 10 16.0934 0 0
1:56 pm 13:56 Cloudy 68 20 64 17.8 87 87 S 9 15 29.81 1010 10 16.0934 0 0
2:46 pm 14:46 Cloudy 70 21 64 18 83 83 SSE 10 17 29.76 1008 10 16.0934 0 0
2:56 pm 14:56 Cloudy 69 20.6 64 17.8 84 84 S 8 13 29.78 1009 10 16.0934 0 0
3:56 pm 15:56 Cloudy 72 22.2 64 17.8 76 76 SSE 13 20 29.74 1007 10 16.0934 0 0
4:56 pm 16:56 Cloudy 72 22.2 63 17.2 73 73 S 10 17 29.75 1007 10 16.0934 0 0
5:52 pm 17:52 Cloudy 70 21 63 17 78 78 SSW 6 9 29.76 1008 10 16.0934 0 0
5:56 pm 17:56 Cloudy 70 21.1 63 17.2 79 79 SSW 6 9 29.77 1008 10 16.0934 0 0
6:56 pm 18:56 Cloudy 69 20.6 64 17.8 84 84 VRB 6 9 29.75 1008 10 16.0934 0 0
7:18 pm 19:18 Cloudy 70 21 64 18 83 83 S 7 11 29.73 1007 10 16.0934 0 0
7:53 pm 19:53 Cloudy 70 21 64 18 83 83 S 8 13 29.73 1007 10 16.0934 0 0
7:56 pm 19:56 Cloudy 69 20.6 65 18.3 87 87 S 8 13 29.74 1007 10 16.0934 0 0
8:14 pm 20:14 Cloudy 70 21 64 18 83 83 S 8 13 29.73 1007 10 16.0934 0 0
8:56 pm 20:56 Cloudy with Rain 64 17.8 61 16.1 90 90 WNW 26 43 29.79 1009 5 8.0467 0.01 0.254
9:00 pm 21:00 Cloudy with Nearby Thunderstorms 61 16 61 16 100 100 WNW 23 37 29.81 1009 4 6.43736 0.04 1.016
9:07 pm 21:07 Cloudy with Heavy Thunderstorms 57 14 57 14 100 100 NW 20 31 29.81 1009 3 4.82802 0.07 1.778
9:18 pm 21:18 Cloudy with Thunderstorms 57 14 57 14 100 100 WNW 16 26 29.84 1010 8 12.87472 0.11 2.794
9:44 pm 21:44 Cloudy with Rain 57 14 57 14 100 100 WNW 22 35 29.86 1011 10 16.0934 0.15 3.81
9:56 pm 21:56 Cloudy with Light Rain 55 12.8 55 12.8 100 100 NW 14 22 29.87 1011 6 9.65604 0.16 4.064
10:04 pm 22:04 Cloudy with Light Rain 55 13 55 13 100 100 WNW 17 28 29.88 1012 9 14.48406 0.01 0.254
10:36 pm 22:36 Cloudy with Light Rain 54 12 54 12 100 100 NW 14 22 29.9 1013 10 16.0934 0.03 0.762
10:56 pm 22:56 Cloudy 54 12.2 54 12.2 100 100 NW 14 22 29.9 1012 10 16.0934 0.04 1.016
11:06 pm 23:06 Cloudy 54 12 54 12 100 100 WNW 14 22 29.91 1013 10 16.0934 0 0
11:56 pm 23:56 Cloudy 54 12.2 54 12.2 100 100 NW 15 24 29.93 1014 10 16.0934 0.01 0.254

Powered by AerisWeather